カタログに戻る

STARLINK-35240

運用中通信SSO
NORAD 65655·PAYLOAD·🇺🇸 United States

打ち上げ Sep 19, 2025 から Vandenberg Space Force Base

Loading…

次のパス (今後24時間)

TLE

最新Source: CelesTrak SupGP

元期: Sep 14, 2026, 23:14 UTC

1 65655C 25211D   26257.96854167  .00052644  00000+0  16343-2 0  2572
2 65655  97.2841 298.2634 0000972  99.3298 288.1641 15.33411933    16

AllMySatでSTARLINK-35240をリアルタイム追跡

Download on the App Store